Flag Weather past 2 weeks in Kulmbach, Bavaria, Germany

Now
34 °F

Low clouds.


Feels Like: 30 °F
Forecast: 29 / 41 °F
Wind: 5 mph from Southeast

Location: Hof

Current Time: Nov 25, 2014 at 11:21:01 PM

Latest Report: Nov 25, 2014 at 9:00 PM


Visibility: 5 mi

Pressure: 30.30 "Hg

Humidity: 88%

Dew point: 31 °F

Location of KulmbachLocation

Historic Weather in Kulmbach — Graph

°F

Kulmbach temperature yesterday

Maximum temperature yesterday: 42 °F (at 5:00 PM)
Minimum temperature yesterday: 35 °F (at 12:00 AM)
Average temperature yesterday: 39 °F

Past Weeks' High & Low Weather Summary

 TemperatureHumidityPressure
High54 °F (Nov 12, 2:00 PM)100% (Nov 10, 9:00 PM)30.39 "Hg (Nov 10, 9:00 PM)
Low31 °F (Nov 23, 7:00 AM)68% (Nov 25, 2:00 PM)29.47 "Hg (Nov 16, 5:00 AM)
Average41 °F94%29.99 "Hg
* Reported Nov 10 9:00 PM — Nov 25 9:00 PM, Kulmbach, Weather by CustomWeather, © 2014

Note: Actual official high and low records may vary slightly from our data, if they occured in-between our weather recording intervals... More about our weather records

Advertising

Kulmbach weather history for previous 24 hours

 ConditionsComfort  
Time TempWeatherWind HumidityBarometerVisibility
9:00 PM
Nov 25
34 °FLow clouds.5 mph88%30.30 "Hg5 mi
8:00 PM34 °FLow clouds.5 mph91%30.30 "Hg5 mi
7:00 PM34 °FLow clouds.5 mph90%30.31 "Hg9 mi
6:00 PM36 °FClear.5 mph88%30.30 "Hg11 mi
5:00 PM38 °FClear.3 mph78%30.29 "Hg22 mi
3:00 PM42 °FSunny.5 mph68%30.29 "Hg9 mi
2:00 PM42 °FPartly sunny.5 mph68%30.29 "Hg9 mi
1:00 PM42 °FOvercast.3 mph72%30.31 "Hg15 mi
12:00 PM39 °FScattered clouds.2 mph82%30.33 "Hg9 mi
11:00 AM35 °FOvercast.2 mph96%30.37 "Hg5 mi
9:00 AM32 °FLow clouds.1 mph100%30.38 "Hg0 mi
8:00 AM31 °FLow clouds.1 mph100%30.39 "Hg0 mi
7:00 AM33 °FLow clouds.1 mph100%30.38 "Hg0 mi
6:00 AM34 °FLow clouds.1 mph100%30.37 "Hg0 mi
5:00 AM35 °FLow clouds.2 mph100%30.37 "Hg0 mi
3:00 AM34 °FPassing clouds.1 mph100%30.37 "Hg0 mi
2:00 AM34 °FPassing clouds.1 mph100%30.38 "Hg0 mi
1:00 AM36 °FPassing clouds.1 mph100%30.38 "Hg0 mi
12:00 AM38 °FFog.1 mph100%30.37 "Hg2 mi
11:00 PM
Nov 24
38 °FFog.1 mph100%30.36 "Hg2 mi
Weather by CustomWeather, © 2014

See weather overviewHow to use our weather pages